Weather in Molodyozhny

Russia / Khabarovsk Krai     50°22′41″N   136°56′52″E
temp.,
°C
wind,
m/s
gust,
m/s
humid.,
%
clouds,
%
prec.,
mm/h
press.,
hPa
HPBL,
m
27 november, sat
sat2701:00−11nw229395 0.0 102227
04:00−16ssw019892 0.0 10239
07:00−18sse1110097 0.0 102510
10:00−14sse2698100 0.1 1026183
13:00−8s4692100 0.1 1025391
16:00−8s479498 0.1 1025363
19:00−11s389899 0.1 1027231
22:00−12s31097100 0.1 1027293
28 november, sun
sun2801:00−12s41196100 0.1 1027352
04:00−11s51294100 0.2 1027429
07:00−12s6139499 0.1 1027454
10:00−12s5149399 0.1 1026474
13:00−11s7129198 0.1 1024495
16:00−10s6119173 0.1 1022416
19:00−11s3994100 0.0 1021246
22:00−10ssw2496100 0.0 1020194
29 november, mon
mon2901:00−11nnw119899 0.0 101839
04:00−11n2396100 0.1 1017110
07:00−11n2695100 0.8 1016288
10:00−10n31092100 2.1 1017467
13:00−7n487955 0.1 1017739
16:00−7n36855 0.1 1019183
19:00−15wsw119977 0.0 10239
22:00−15s1110093 0.0 102413
30 november, tue
tue3001:00−15s2498100 0.1 102594
04:00−13s389692 0.3 1024271
07:00−14s3897100 0.1 1024279
10:00−13s4995100 0.1 1023378
13:00−12s4791100 0.0 1021414
16:00−11sse249398 0.1 1019242
19:00−14n2297100 0.0 101821
22:00−12n3794100 0.0 1016198
1 december, wed
wed101:00−12n81490100 0.0 1014428
04:00−13n101790100 0.3 1010521
07:00−13n111992100 2.3 1007574
10:00−13n111991100 5.9 1005650
13:00−11n121989100 1.8 1000797
16:00−11n132088100 2.6 996947
19:00−11n142290100 3.0 991957
22:00−10n142289100 6.4 9891082